sat.trackr.live / text

‹ back to catalog

STARLINK-36692

NORAD 67744 · 2026-026Z

PAYLOAD ACTIVE UNKNOWN

§ Identity

Operator
Country
US
Launch date
2026-02-11
Launch site
AFWTR
Launch vehicle
Mass (kg)
RCS (m²)

Purposes: comms

External: N2YO · Heavens-Above · Gunter

§ Orbital elements

Epoch: 2026-09-19T20:16:11.895168Z

Period
93.91 min
Inclination
97.2855°
Eccentricity
0.0001086
Mean motion
15.33443590 rev/d
Perigee alt
464.8 km
Apogee alt
466.3 km
Semi-major
6,843.7 km
B*
3.3328e-4
RAAN
314.7386°
Arg perigee
95.9856°
Mean anomaly
264.1511°
Rev number
3,388

§ Raw data

STARLINK-366921 67744U 26026Z   26262.84458212  .00010699  00000+0  33328-3 0  99922 67744  97.2855 314.7386 0001086  95.9856 264.1511 15.33443590 33884

JSON: /api/v1/satellites/67744 · /tle

For live sub-satellite position, see the globe view (requires WebGL).

§ Visibility from observer

Set your observer location to see the next 7 days of passes ≥ 10°. The values pass through the URL so the page stays shareable.

No JS? Fill the form by hand. The geolocation button needs JavaScript.